USA 169 (MILSTAR-2 4)

Last updated on Mon Sep 21 2026 00:02:57 GMT+0000 (Coordinated Universal Time)

1 27711U 03012A 26263.15530670 -.00000195 00000+0 00000+0 0 9994 2 27711 12.4784 28.1908 0096551 12.3670 166.6289 1.00271099 33901
UTC large
Height (km)
Speed (km/s)
/
Latitude / Longitude
Inclination (degrees)
Orbital Period (minutes)
Azimuth
Elevation
Range (km)
Doppler Factor

Next 0 passes for location: London (51.5072 / 0.1276)

No passes found over London.
USA 169 (MILSTAR-2 4)